Weather History for Defiance, OH

Change the Weather History Date:

Sunday, December 15, 2013

  Actual Average Record
Temperature  
Mean Temperature 18 °F -  
Max Temperature 24 °F 37 °F 66 °F (1975)
Min Temperature 10 °F 22 °F -5 °F (1945)
Degree Days  
Heating Degree Days 47    
Moisture  
Dew Point 13 °F    
Average Humidity 77    
Maximum Humidity 86    
Minimum Humidity 68    
Precipitation  
Precipitation 0.00 in - - ()
Sea Level Pressure  
Sea Level Pressure 29.96 in    
Wind  
Wind Speed 8 mph (WSW)    
Max Wind Speed 15 mph    
Max Gust Speed 24 mph    
Visibility 7 miles    
Events Snow    
Averages and records for this station are not official NWS values.
T = Trace of Precipitation, MM = Missing Value Source: NWS Daily Summary

Daily Weather History Graph

Daily Weather History Graph

Search for Another Location

Airport:

Trip Planner

Search our weather history database for the weather conditions in past years. The results will help you decide how hot, cold, wet, or windy it might be!

Date:

Astronomy

Dec. 15, 2013 Rise Set
Actual Time 7:56 AM EST 5:09 PM EST
Civil Twilight 7:25 AM EST 5:40 PM EST
Nautical Twilight 6:50 AM EST 6:15 PM EST
Astronomical Twilight 6:16 AM EST 6:49 PM EST
Moon 4:13 PM EST (12/15) 6:11 AM EST (12/15)
Length of Visible Light 10h 15m
Length of Day
9h 12m
Waxing Gibbous, 97% of the Moon is Illuminated
Dec 15
Waxing Gibbous
Dec 17
Full
Dec 25
Last Quarter
Jan 1
New
Jan 7
First Quarter

Hourly Weather History & Observations

Time (EST) Temp. Windchill Dew Point Humidity Pressure Visibility Wind Dir Wind Speed Gust Speed Precip Events Conditions
12:53 AM 21.9 °F 13.4 °F 17.1 °F 82% 29.89 in 10.0 mi Variable 6.9 mph - N/A   Overcast
1:53 AM 21.0 °F 13.4 °F 16.0 °F 81% 29.90 in 10.0 mi Variable 5.8 mph - N/A   Overcast
2:53 AM 21.0 °F 14.6 °F 16.0 °F 81% 29.91 in 10.0 mi Variable 4.6 mph - N/A   Overcast
3:41 AM 21.2 °F 14.9 °F 15.8 °F 80% 29.88 in 10.0 mi WSW 4.6 mph - N/A   Overcast
3:53 AM 21.9 °F 15.7 °F 16.0 °F 78% 29.92 in 10.0 mi Variable 4.6 mph - N/A   Overcast
4:33 AM 21.2 °F 13.6 °F 17.6 °F 86% 29.89 in 10.0 mi WSW 5.8 mph - N/A   Overcast
4:53 AM 21.9 °F 14.5 °F 17.1 °F 82% 29.92 in 10.0 mi WSW 5.8 mph - N/A   Overcast
5:53 AM 23.0 °F 17.0 °F 18.0 °F 81% 29.93 in 7.0 mi WSW 4.6 mph - N/A   Overcast
6:00 AM 23.0 °F 17.0 °F 17.6 °F 80% 29.90 in 7.0 mi WSW 4.6 mph - N/A   Overcast
6:53 AM 23.0 °F 14.7 °F 19.0 °F 85% 29.92 in 7.0 mi SSW 6.9 mph - N/A   Overcast
7:01 AM 23.0 °F 14.7 °F 19.4 °F 86% 29.88 in 6.0 mi SSW 6.9 mph - N/A   Overcast
7:29 AM 23.0 °F 13.9 °F 19.4 °F 86% 29.89 in 6.0 mi SW 8.1 mph - N/A   Overcast
7:53 AM 24.1 °F 13.1 °F 19.9 °F 84% 29.92 in 7.0 mi SW 11.5 mph - N/A   Overcast
8:35 AM 24.8 °F 14.6 °F 17.6 °F 74% 29.89 in 10.0 mi WSW 10.4 mph 20.7 mph N/A   Overcast
8:53 AM 24.1 °F 13.1 °F 18.0 °F 77% 29.93 in 8.0 mi WSW 11.5 mph 23.0 mph N/A   Overcast
9:34 AM 21.2 °F 8.9 °F 15.8 °F 80% 29.92 in 2.0 mi WSW 12.7 mph 24.2 mph 0.00 in Snow Light Snow
9:42 AM 21.2 °F 7.8 °F 15.8 °F 80% 29.92 in 1.8 mi SW 15.0 mph 23.0 mph 0.00 in Snow Light Snow
9:53 AM 19.9 °F 6.2 °F 15.1 °F 81% 29.96 in 1.2 mi SW 15.0 mph 24.2 mph 0.00 in Snow Light Snow
10:09 AM 19.4 °F 5.5 °F 14.0 °F 80% 29.93 in 2.0 mi SW 15.0 mph 23.0 mph 0.00 in Snow Light Snow
10:14 AM 19.4 °F 7.9 °F 14.0 °F 80% 29.93 in 2.5 mi WSW 10.4 mph 20.7 mph 0.00 in Snow Light Snow
10:21 AM 19.4 °F 7.2 °F 12.2 °F 74% 29.93 in 4.0 mi WSW 11.5 mph 21.9 mph 0.00 in Snow Light Snow
10:53 AM 19.0 °F 6.1 °F 12.0 °F 74% 29.97 in 5.0 mi WSW 12.7 mph 23.0 mph 0.00 in   Haze
11:21 AM 19.4 °F 6.0 °F 12.2 °F 74% 29.93 in 5.0 mi SW 13.8 mph 24.2 mph N/A   Haze
11:53 AM 19.0 °F 6.8 °F 12.0 °F 74% 29.96 in 7.0 mi WSW 11.5 mph 21.9 mph N/A   Overcast
12:33 PM 19.4 °F 7.2 °F 10.4 °F 68% 29.93 in 6.0 mi WSW 11.5 mph 19.6 mph N/A   Haze
12:53 PM 19.0 °F 7.5 °F 10.9 °F 71% 29.96 in 6.0 mi WSW 10.4 mph 20.7 mph N/A   Haze
1:05 PM 17.6 °F 5.0 °F 10.4 °F 73% 29.92 in 5.0 mi WSW 11.5 mph 21.9 mph N/A   Haze
1:53 PM 18.0 °F 6.1 °F 10.0 °F 71% 29.96 in 8.0 mi WSW 10.4 mph 24.2 mph N/A   Overcast
2:53 PM 17.1 °F 3.0 °F 9.0 °F 71% 29.98 in 8.0 mi SW 13.8 mph 24.2 mph N/A   Overcast
3:53 PM 17.1 °F 5.0 °F 9.0 °F 71% 30.00 in 9.0 mi WSW 10.4 mph 18.4 mph N/A   Overcast
4:53 PM 17.1 °F 5.8 °F 9.0 °F 71% 30.02 in 9.0 mi WSW 9.2 mph 18.4 mph N/A   Overcast
5:53 PM 15.1 °F 4.2 °F 7.0 °F 70% 30.03 in 10.0 mi WSW 8.1 mph - N/A   Clear
6:53 PM 14.0 °F 2.0 °F 6.1 °F 71% 30.06 in 10.0 mi WSW 9.2 mph - N/A   Clear
7:53 PM 14.0 °F 3.9 °F 6.1 °F 71% 30.08 in 10.0 mi WSW 6.9 mph - N/A   Clear
8:53 PM 14.0 °F 1.2 °F 7.0 °F 74% 30.09 in 10.0 mi WSW 10.4 mph - N/A   Overcast
9:53 PM 14.0 °F 2.9 °F 7.0 °F 74% 30.11 in 10.0 mi WSW 8.1 mph - N/A   Overcast
10:53 PM 12.0 °F 2.7 °F 6.1 °F 77% 30.12 in 10.0 mi WSW 5.8 mph - N/A   Mostly Cloudy
11:53 PM 10.9 °F 1.4 °F 5.0 °F 77% 30.12 in 10.0 mi WSW 5.8 mph - N/A   Clear